Simultaneous Nadir Overpasses (SNOs) Predictions

Prediction of SNOs between LANDSAT-8 and NOAA-19 Satellite Orbit:

Table of predicted SNOs for the next 14.0 days since TLE Epoch: 9/4/2021
Index Date (LANDSAT-8) Time (LANDSAT-8) Lat,Lon (LANDSAT-8) SZA (LANDSAT-8 ) Date (NOAA-19) Time (NOAA-19) Lat,Lon (NOAA-19) SZA (NOAA-19 ) Distance(km) Time Diff (sec)
1 09/05/2021 05:22:15 -80.50, -48.22 104.73 09/05/2021 05:21:47 -80.52, -48.38 104.74 3.35 28
2 09/05/2021 06:11:42 80.48, 119.15 75.25 09/05/2021 06:12:46 80.50, 119.28 75.30 3.35 64
3 09/07/2021 10:55:59 80.51, 48.43 76.14 09/07/2021 10:54:54 80.51, 48.52 76.13 1.65 65
4 09/07/2021 11:45:26 -80.51,-143.93 103.85 09/07/2021 11:45:53 -80.51,-144.05 103.86 2.30 27
5 09/09/2021 17:19:10 80.52, -47.32 77.02 09/09/2021 17:19:01 80.51, -47.32 77.01 0.81 9
6 09/11/2021 22:52:55 -80.52, 49.28 102.12 09/11/2021 22:52:07 -80.52, 49.29 102.14 0.15 48
7 09/11/2021 23:42:21 80.52,-143.09 77.90 09/11/2021 23:43:08 80.51,-143.19 77.90 2.43 47
8 09/14/2021 05:16:06 -80.52, -46.49 101.23 09/14/2021 05:16:13 -80.51, -46.44 101.24 1.77 7
9 09/16/2021 10:49:50 80.52, 50.02 79.63 09/16/2021 10:49:23 80.52, 50.07 79.63 1.22 27



Historial Predications of SNOs between LANDSAT-8 and NOAA-19
